Stündliche Wetter Kyslytsya

Heute, 8 Mai, Samstag

Zeit Temperatur Niederschläge Wind Luftdruck Luftfeuchtigkeit
00:00 +15°C° 0.5 mm 5 m/S 755 mmHg 85%
01:00 +14°C° 0.5 mm 4 m/S 755 mmHg 87%
02:00 +14°C° 0 mm 4 m/S 755 mmHg 91%
03:00 +14°C° 0.4 mm 3 m/S 755 mmHg 91%
04:00 +14°C° 0.4 mm 3 m/S 755 mmHg 92%
05:00 +14°C° 0.4 mm 3 m/S 755 mmHg 93%
06:00 +15°C° 0.3 mm 4 m/S 756 mmHg 87%
07:00 +15°C° 0.3 mm 6 m/S 757 mmHg 81%
08:00 +16°C° 0 mm 8 m/S 757 mmHg 76%
09:00 +15°C° 0 mm 8 m/S 758 mmHg 74%
10:00 +13°C° 0 mm 8 m/S 759 mmHg 71%
11:00 +12°C° 0 mm 9 m/S 760 mmHg 68%
12:00 +13°C° 0 mm 8 m/S 760 mmHg 63%
13:00 +14°C° 0 mm 7 m/S 761 mmHg 57%
14:00 +15°C° 0 mm 7 m/S 761 mmHg 52%
15:00 +15°C° 0 mm 7 m/S 761 mmHg 49%
16:00 +15°C° 0 mm 6 m/S 762 mmHg 45%
17:00 +15°C° 0 mm 6 m/S 762 mmHg 41%
18:00 +13°C° 0 mm 5 m/S 763 mmHg 46%
19:00 +12°C° 0 mm 5 m/S 764 mmHg 50%
20:00 +11°C° 0 mm 4 m/S 764 mmHg 54%
21:00 +10°C° 0 mm 4 m/S 765 mmHg 57%
22:00 +8°C° 0 mm 4 m/S 765 mmHg 61%
23:00 +8°C° 0 mm 3 m/S 766 mmHg 65%

Morgen, 9 Mai, Sonntag

Zeit Temperatur Niederschläge Wind Luftdruck Luftfeuchtigkeit
00:00 +8°C° 0 mm 3 m/S 766 mmHg 66%
01:00 +8°C° 0 mm 3 m/S 767 mmHg 67%
02:00 +7°C° 0 mm 3 m/S 767 mmHg 68%
03:00 +7°C° 0 mm 3 m/S 767 mmHg 68%
04:00 +7°C° 0 mm 3 m/S 768 mmHg 69%
05:00 +5°C° 0 mm 3 m/S 768 mmHg 70%
06:00 +8°C° 0 mm 3 m/S 769 mmHg 64%
07:00 +10°C° 0 mm 4 m/S 769 mmHg 57%
08:00 +12°C° 0 mm 4 m/S 769 mmHg 50%
09:00 +13°C° 0 mm 4 m/S 769 mmHg 46%
10:00 +14°C° 0 mm 4 m/S 770 mmHg 42%
11:00 +15°C° 0 mm 4 m/S 770 mmHg 37%
12:00 +17°C° 0 mm 4 m/S 770 mmHg 35%
13:00 +18°C° 0 mm 3 m/S 769 mmHg 33%
14:00 +18°C° 0 mm 3 m/S 769 mmHg 31%
15:00 +18°C° 0 mm 3 m/S 769 mmHg 31%
16:00 +18°C° 0 mm 2 m/S 769 mmHg 32%
17:00 +18°C° 0 mm 2 m/S 769 mmHg 33%
18:00 +16°C° 0 mm 2 m/S 769 mmHg 41%
19:00 +13°C° 0 mm 3 m/S 770 mmHg 49%
20:00 +12°C° 0 mm 4 m/S 770 mmHg 57%
21:00 +11°C° 0 mm 3 m/S 770 mmHg 62%
22:00 +10°C° 0 mm 3 m/S 770 mmHg 66%
23:00 +10°C° 0 mm 3 m/S 771 mmHg 71%

übermorgen, 10 Mai, Montag

Zeit Temperatur Niederschläge Wind Luftdruck Luftfeuchtigkeit
00:00 +9°C° 0 mm 3 m/S 770 mmHg 72%
01:00 +9°C° 0 mm 2 m/S 770 mmHg 73%
02:00 +9°C° 0 mm 2 m/S 770 mmHg 74%
03:00 +9°C° 0 mm 2 m/S 770 mmHg 74%
04:00 +9°C° 0 mm 1 m/S 770 mmHg 73%
05:00 +9°C° 0 mm 1 m/S 770 mmHg 73%
06:00 +11°C° 0 mm 1 m/S 770 mmHg 66%
07:00 +13°C° 0 mm 1 m/S 770 mmHg 58%
08:00 +15°C° 0 mm 1 m/S 771 mmHg 51%
09:00 +16°C° 0 mm 2 m/S 770 mmHg 47%
10:00 +17°C° 0 mm 2 m/S 770 mmHg 43%
11:00 +18°C° 0 mm 3 m/S 770 mmHg 38%
12:00 +19°C° 0 mm 3 m/S 770 mmHg 38%
13:00 +19°C° 0 mm 3 m/S 769 mmHg 38%
14:00 +20°C° 0 mm 4 m/S 769 mmHg 37%
15:00 +19°C° 0 mm 4 m/S 769 mmHg 39%
16:00 +19°C° 0 mm 4 m/S 768 mmHg 41%
17:00 +18°C° 0 mm 4 m/S 768 mmHg 42%
18:00 +15°C° 0 mm 4 m/S 768 mmHg 48%
19:00 +13°C° 0 mm 4 m/S 768 mmHg 53%
20:00 +12°C° 0 mm 3 m/S 768 mmHg 58%
21:00 +11°C° 0 mm 3 m/S 768 mmHg 59%
22:00 +11°C° 0 mm 3 m/S 768 mmHg 61%
23:00 +10°C° 0 mm 2 m/S 768 mmHg 62%

11 Mai, Dienstag

Zeit Temperatur Niederschläge Wind Luftdruck Luftfeuchtigkeit
00:00 +10°C° 0 mm 2 m/S 768 mmHg 61%
01:00 +10°C° 0 mm 2 m/S 768 mmHg 61%
02:00 +10°C° 0 mm 2 m/S 767 mmHg 60%
03:00 +9°C° 0 mm 2 m/S 767 mmHg 61%
04:00 +9°C° 0 mm 2 m/S 767 mmHg 63%
05:00 +9°C° 0 mm 2 m/S 767 mmHg 64%
06:00 +10°C° 0 mm 2 m/S 767 mmHg 59%
07:00 +13°C° 0 mm 2 m/S 767 mmHg 54%
08:00 +15°C° 0 mm 2 m/S 767 mmHg 49%
09:00 +16°C° 0 mm 2 m/S 766 mmHg 47%
10:00 +18°C° 0 mm 2 m/S 766 mmHg 44%
11:00 +19°C° 0 mm 2 m/S 765 mmHg 41%
12:00 +20°C° 0 mm 2 m/S 765 mmHg 39%
13:00 +21°C° 0 mm 2 m/S 764 mmHg 36%
14:00 +23°C° 0 mm 2 m/S 763 mmHg 34%
15:00 +23°C° 0 mm 2 m/S 763 mmHg 33%
16:00 +23°C° 0 mm 2 m/S 763 mmHg 33%
17:00 +23°C° 0 mm 2 m/S 762 mmHg 33%
18:00 +20°C° 0 mm 2 m/S 762 mmHg 40%
19:00 +18°C° 0 mm 2 m/S 762 mmHg 48%
20:00 +16°C° 0 mm 2 m/S 762 mmHg 55%
21:00 +15°C° 0 mm 2 m/S 761 mmHg 57%
22:00 +15°C° 0 mm 2 m/S 761 mmHg 60%
23:00 +15°C° 0 mm 1 m/S 761 mmHg 62%

12 Mai, Mittwoch

Zeit Temperatur Niederschläge Wind Luftdruck Luftfeuchtigkeit
00:00 +15°C° 0 mm 2 m/S 761 mmHg 66%
01:00 +15°C° 0 mm 2 m/S 760 mmHg 71%
02:00 +13°C° 0 mm 3 m/S 760 mmHg 76%
03:00 +13°C° 0 mm 3 m/S 760 mmHg 79%
04:00 +13°C° 0 mm 3 m/S 760 mmHg 82%
05:00 +12°C° 0 mm 3 m/S 759 mmHg 86%
06:00 +13°C° 0.2 mm 3 m/S 759 mmHg 84%
07:00 +13°C° 0.2 mm 3 m/S 759 mmHg 83%
08:00 +13°C° 0.2 mm 3 m/S 759 mmHg 81%
09:00 +14°C° 0.1 mm 3 m/S 759 mmHg 77%
10:00 +14°C° 0.1 mm 3 m/S 759 mmHg 73%
11:00 +16°C° 0.1 mm 3 m/S 759 mmHg 70%
12:00 +16°C° 0 mm 3 m/S 759 mmHg 67%
13:00 +17°C° 0 mm 4 m/S 758 mmHg 64%
14:00 +17°C° 0 mm 4 m/S 758 mmHg 61%
15:00 +17°C° 0 mm 4 m/S 758 mmHg 62%
16:00 +16°C° 0 mm 5 m/S 758 mmHg 63%
17:00 +16°C° 0 mm 5 m/S 757 mmHg 63%
18:00 +15°C° 0 mm 5 m/S 757 mmHg 70%
19:00 +14°C° 0 mm 5 m/S 757 mmHg 76%
20:00 +13°C° 0 mm 5 m/S 757 mmHg 82%
21:00 +12°C° 0 mm 4 m/S 757 mmHg 83%
22:00 +12°C° 0 mm 4 m/S 757 mmHg 84%
23:00 +12°C° 0 mm 4 m/S 757 mmHg 85%

13 Mai, Donnerstag

Zeit Temperatur Niederschläge Wind Luftdruck Luftfeuchtigkeit
00:00 +12°C° 0 mm 4 m/S 756 mmHg 86%
01:00 +11°C° 0 mm 4 m/S 756 mmHg 87%
02:00 +11°C° 0 mm 3 m/S 756 mmHg 87%
03:00 +11°C° 0.1 mm 4 m/S 756 mmHg 86%
04:00 +11°C° 0.1 mm 4 m/S 755 mmHg 85%
05:00 +12°C° 0.1 mm 4 m/S 755 mmHg 84%
06:00 +13°C° 0.1 mm 5 m/S 755 mmHg 78%
07:00 +14°C° 0.1 mm 5 m/S 755 mmHg 73%
08:00 +15°C° 0.1 mm 6 m/S 755 mmHg 67%
09:00 +16°C° 0 mm 5 m/S 755 mmHg 64%
10:00 +19°C° 0 mm 5 m/S 755 mmHg 60%
11:00 +20°C° 0 mm 5 m/S 755 mmHg 57%
12:00 +21°C° 0 mm 5 m/S 755 mmHg 54%
13:00 +22°C° 0 mm 5 m/S 754 mmHg 51%
14:00 +23°C° 0 mm 4 m/S 754 mmHg 48%
15:00 +23°C° 0 mm 4 m/S 754 mmHg 49%
16:00 +22°C° 0 mm 5 m/S 754 mmHg 50%
17:00 +22°C° 0 mm 5 m/S 754 mmHg 52%
18:00 +20°C° 0 mm 4 m/S 755 mmHg 62%
19:00 +18°C° 0 mm 4 m/S 755 mmHg 72%
20:00 +15°C° 0 mm 4 m/S 755 mmHg 83%
21:00 +14°C° 0 mm 3 m/S 755 mmHg 84%
22:00 +14°C° 0 mm 3 m/S 755 mmHg 86%
23:00 +13°C° 0 mm 3 m/S 755 mmHg 88%
Mehr zeigen

Wir brauchen deine Erlaubnis

Meteoprog und unser Service Anbieter werden persönliche Daten aufbewahren, so wie Cookies, Geräte Bezeichnung oder ähnliche Technologien von deinem Gerät und Prozess, so wie Persönliche Daten Inhalte und Werbungen, genauso wie social Media und den Verkehr zu analysieren.

  • Aufbewahrung und/oder Zugang zu deiner Geräte Informationen.

    Cookies, Geräte Bezeichnung oder andere Informationen, können aufbewahrt oder Zugang zu deinem Gerät erhalten, für den Grund, der oben angegeben wird.

  • Personalisierte Werbung und Inhalte, Messungen, Einblick in das Publikum und Produkt Entwicklung.

    Werbungen und Inhalte können personalisiert werden, basierend auf ein Profil. Mehr Daten können besser personalisierte Werbungen und Inhalte hinzufügen. Werbung und Inhalte können gezeigt und gemessen werden. Einblicke über das Publikum, welche die Werbung gesehen haben und den Inhalt, können abgeleitet werden. So wie Daten können genutzt werden, um es zu verbessern oder die Benutzer Erfahrung zu verbessern das System und die Software.

Wenn du “Ich stimme zu” klickst, erlaubst du uns, die Cookies zu benutzen die Geräte Bezeichnung, den Web oder ähnliche Technologien zu benutzen. Deine Settings, können in deinem Gerät bei deinem Browser geändert werden.

Für den bestimmten Zweck, berechtigten Interessen beruhen darauf, mehr als auf den Inhalt. Du kannst mehr darüber in unseren Privaten und Cookie Politik lesen.